Regional Weather Roundup
Issued by NWS Charleston, SC

Current Version | Previous Version | Text Only | Print | Product List | Glossary Off
Versions: 1 2 3 4 5 6 7 8 9 10 11 12 13 14 15 16 17 18 19 20 21 22 23 24 25 26 27 28 29 30 31 32 33 34 35 36 37 38 39 40 41 42 43 44 45 46 47 48 49 50

000
ASUS42 KCHS 232010
RWRCHS
REGIONAL WEATHER ROUNDUP
NATIONAL WEATHER SERVICE CHARLESTON SC
400 PM EDT WED APR 23 2014

NOTE: "FAIR" INDICATES FEW OR NO CLOUDS BELOW 12,000 FEET WITH NO
SIGNIFICANT WEATHER AND/OR OBSTRUCTIONS TO VISIBILITY.

NOT ALL STATIONS ARE QUALITY CONTROLLED BY THE NATIONAL
WEATHER SERVICE. USE DATA WITH CAUTION...ESPECIALLY
DEWPOINT OBSERVATIONS.

SCZ027-030-031-034>040-042>050-232100-
...SOUTH CAROLINA...

CITY           SKY/WX    TMP DP  RH WIND       PRES   REMARKS
N CHARLESTON   MOSUNNY   85  50  29 NW10      29.81F
WATERFRONT PRK   N/A     81 N/A N/A NW8G21      N/A
FORT JOHNSON   NOT AVBL
MOUNT PLEASANT LGT RAIN  82  52  34 NW7       29.80F
JOHNS ISLAND   CLEAR     86  55  35 NW10G18   29.81F
PINOPOLIS        N/A     75  61  60 N10       29.74F
MONCKS CORNER  FAIR      81  59  47 N6        29.82F
SUMMERVILLE    NOT AVBL
BEAUFORT MCAS  MOSUNNY   84  53  34 NW12      29.82F
BEAUFORT ARPT  FAIR      84  59  42 W12G17    29.82F
HILTON HEAD IS SUNNY     82  55  39 W8G18     29.84F
GEORGETOWN     NOT AVBL
WALTERBORO     CLEAR     82  55  39 W8        29.82F
ORANGEBURG     SUNNY     82  40  22 W8        29.82F
BARNWELL       FAIR      82  46  28 NW6       29.83F
AIKEN          FAIR      81  52  36 NW7       29.87F
MANNING        FAIR      82  48  30 W6        29.82F
KINGSTREE      NOT AVBL
COLUMBIA       MOSUNNY   82  41  23 NW14      29.83F
SUMTER         SUNNY     81  33  17 VRB3G17   29.81F
FLORENCE       SUNNY     82  37  20 NW10      29.81F
MYRTLE BEACH   NOT AVBL
N MYRTLE BEACH SUNNY     80  43  26 NW9G21    29.79F

$$

GAZ063-065-086>088-099>101-113>116-118-119-134-136>141-150-232100-
...GEORGIA...

CITY           SKY/WX    TMP DP  RH WIND       PRES   REMARKS
SAVANNAH ARPT  MOSUNNY   84  53  34 W16G23    29.84F
HUNTER AAF     SUNNY     84  55  37 NW9       29.82F
FORT STEWART   MOSUNNY   83  63  50 NW12      29.84F
STATESBORO     NOT AVBL
SYLVANIA       CLEAR     85  37  18 NW10G16   29.84F
CLAXTON        FAIR      82  59  44 W10G20    29.85F
THOMSON        SUNNY     80  48  31 W7        29.89F
AUGUSTA-BUSH   SUNNY     83  47  28 N10       29.83F
AUGUSTA-DANIEL SUNNY     82  44  26 VRB3      29.85F
SWAINSBORO     FAIR      82  43  24 W10G17    29.86F
VIDALIA        SUNNY     81  55  41 W7        29.87F
ALMA           MOSUNNY   83  57  41 NW7       29.87F
WAYCROSS       NOT AVBL
JESUP          FAIR      79  61  53 NW5       29.86F
BRUNSWICK      PTSUNNY   82  59  44 NW7       29.86F
SAINT SIMONS   SUNNY     83  57  41 W9        29.85F

$$

SCZ027-028-034-036>038-045-046-048>050-GAZ119-141-232100-
...LAKE AND SUPPLEMENTAL COASTAL OBSERVATIONS...

STATION/POSITION TIME  TEMP    WIND        PRES    WAVE   SWELL
                       AIR SEA DIR/SP/G            HT/PER HT/PER/DIR
                 (UTC) (F)     (DEG/KT/KT) (MB)    (FT/S) (FT/S/D)
UPR LAKE MARION  NOT AVBL
WINYAH BAY       1900   79     280/  9     1009.0S
LAKE MURRAY      1900   77     280/  7/  9 1009.8F
ACE BASIN NERRS  1900   82     300/  4     1011.0S
FORT PULASKI     NOT AVBL
SAPELO ISLAND    1900   82     300/  7     1012.0S

$$

ANZ835-935-AMZ111-154-330-350-352-354-374-450-454-472-232100-
...C-MAN AND BUOY OBSERVATIONS...

STATION/POSITION TIME  TEMP    WIND        PRES    WAVE   SWELL
                       AIR SEA DIR/SP/G            HT/PER HT/PER/DIR
                 (UTC) (F)     (DEG/KT/KT) (MB)    (FT/S) (FT/S/D)
FOLLY BEACH CMAN 1900   70     200/  7/  9 1010.5F
BUOY 41004       2000   67 68  230/ 10/ 10 1009.7F   2/ 8   2/ 8
BUOY 41008       2000   70 69  180/  4/  6 1011.0F   1/ 9   2/ 90/ 9
5E ST. MARYS GA  2000      69                N/A     1/ 8
FRYING PAN BUOY  2000   69 69  240/ 10/ 12 1008.6F   3/ 8   2/100/ 8
BUOY 41025       2000   61 76   10/ 10/ 14 1008.2S   5/ 7   5/ 30/ 7
CAPE LOOKOUT NC  1900   62     140/  7/  8 1008.7S
BUOY 41002       NOT AVBL
BUOY 41010       2000   74 76  300/ 10/ 12 1012.4F   3/ 9   3/ 50/ 9
BUOY 41012       NOT AVBL
ST AUGUSTINE FL  2000   70     140/  8/  9 1012.2F
CAPERS NEARSHORE NOT AVBL
FRIPP NEARSHORE  1900   68     220/ 10/ 10   N/A


$$


USA.gov is the U.S. government's official web portal to all federal, state and local government web resources and services.